| time (UTC) | temp F | wind direction | speed MPH | gust MPH | rain 1hr in | rain 24hr in | rain mn in | humidity % | barometer mb |
| 20260902163024 | 77 | 117 | 2.0 | 12.0 | 0.00 | 0.00 | 0.00 | 62 | 1012.0 |
| 20260902161520 | 76 | 136 | 3.0 | 9.0 | 0.00 | 0.00 | 0.00 | 64 | 1011.9 |
| 20260902160010 | 75 | 84 | 3.0 | 11.0 | 0.00 | 0.00 | 0.00 | 65 | 1012.1 |
| 20260902154520 | 76 | 62 | 4.0 | 10.0 | 0.00 | 0.00 | 0.00 | 63 | 1012.0 |
| 20260902153030 | 74 | 146 | 1.0 | 8.0 | 0.00 | 0.00 | 0.00 | 64 | 1012.0 |
| 20260902151504 | 75 | 40 | 3.0 | 9.0 | 0.00 | 0.00 | 0.00 | 64 | 1012.0 |
| 20260902150018 | 74 | 83 | 2.0 | 7.0 | 0.00 | 0.00 | 0.00 | 66 | 1011.8 |
| 20260902144515 | 73 | 97 | 2.0 | 9.0 | 0.00 | 0.00 | 0.00 | 69 | 1012.0 |
| 20260902143028 | 72 | 52 | 2.0 | 6.0 | 0.00 | 0.00 | 0.00 | 70 | 1012.3 |
| 20260902141508 | 71 | 128 | 1.0 | 7.0 | 0.00 | 0.00 | 0.00 | 71 | 1012.7 |
| 20260902140011 | 70 | 134 | 0.0 | 7.0 | 0.00 | 0.00 | 0.00 | 74 | 1012.4 |
| 20260902134516 | 68 | 86 | 0.0 | 0.0 | 0.00 | 0.00 | 0.00 | 78 | 1012.4 |
| 20260902133040 | 66 | 80 | 0.0 | 3.0 | 0.00 | 0.00 | 0.00 | 81 | 1012.8 |
| 20260902131529 | 66 | 80 | 0.0 | 0.0 | 0.00 | 0.00 | 0.00 | 82 | 1012.9 |
| 20260902130032 | 65 | 80 | 0.0 | 0.0 | 0.00 | 0.00 | 0.00 | 83 | 1012.8 |
| 20260902124523 | 65 | 80 | 0.0 | 2.0 | 0.00 | 0.00 | 0.00 | 82 | 1012.7 |
| 20260902123025 | 65 | 107 | 1.0 | 4.0 | 0.00 | 0.00 | 0.00 | 83 | 1012.8 |
| 20260902121532 | 65 | 127 | 0.0 | 2.0 | 0.00 | 0.00 | 0.00 | 83 | 1012.2 |
| 20260902120034 | 65 | 108 | 0.0 | 4.0 | 0.00 | 0.00 | 0.00 | 84 | 1012.3 |
| 20260902114530 | 65 | 108 | 0.0 | 3.0 | 0.00 | 0.00 | 0.00 | 84 | 1012.4 |
| 20260902113026 | 65 | 114 | 1.0 | 4.0 | 0.00 | 0.00 | 0.00 | 84 | 1012.5 |
| 20260902111531 | 65 | 123 | 0.0 | 0.0 | 0.00 | 0.00 | 0.00 | 83 | 1012.8 |
| 20260902110030 | 66 | 123 | 0.0 | 0.0 | 0.00 | 0.00 | 0.00 | 82 | 1012.6 |
| 20260902104524 | 66 | 123 | 0.0 | 2.0 | 0.00 | 0.00 | 0.00 | 80 | 1013.2 |
| 20260902103030 | 66 | 101 | 0.0 | 1.0 | 0.00 | 0.00 | 0.00 | 79 | 1013.0 |
| 20260902101517 | 66 | 103 | 1.0 | 6.0 | 0.00 | 0.00 | 0.00 | 78 | 1012.8 |
| 20260902100019 | 66 | 63 | 0.0 | 4.0 | 0.00 | 0.00 | 0.00 | 78 | 1012.7 |
| 20260902094528 | 66 | 85 | 2.0 | 6.0 | 0.00 | 0.00 | 0.00 | 78 | 1012.2 |
| 20260902093033 | 67 | 58 | 0.0 | 7.0 | 0.00 | 0.00 | 0.00 | 75 | 1012.2 |
| 20260902091513 | 66 | 78 | 2.0 | 7.0 | 0.00 | 0.00 | 0.00 | 75 | 1012.2 |
| 20260902090023 | 66 | 74 | 0.0 | 4.0 | 0.00 | 0.00 | 0.00 | 77 | 1012.3 |
| 20260902084527 | 66 | 73 | 1.0 | 4.0 | 0.00 | 0.00 | 0.00 | 78 | 1012.3 |
| 20260902083043 | 67 | 78 | 0.0 | 3.0 | 0.00 | 0.00 | 0.00 | 77 | 1012.3 |
| 20260902081521 | 67 | 78 | 0.0 | 4.0 | 0.00 | 0.00 | 0.00 | 76 | 1012.2 |
| 20260902080027 | 67 | 76 | 0.0 | 0.0 | 0.00 | 0.00 | 0.00 | 77 | 1012.3 |
| 20260902074531 | 67 | 71 | 0.0 | 2.0 | 0.00 | 0.00 | 0.00 | 78 | 1012.3 |
| 20260902073007 | 66 | 71 | 0.0 | 2.0 | 0.00 | 0.00 | 0.00 | 80 | 1012.5 |
| 20260902071503 | 66 | 71 | 2.0 | 7.0 | 0.00 | 0.00 | 0.00 | 81 | 1012.7 |
| 20260902070006 | 66 | 85 | 0.0 | 2.0 | 0.00 | 0.00 | 0.00 | 82 | 1012.7 |
| 20260902064509 | 67 | 85 | 0.0 | 2.0 | 0.00 | 0.00 | 0.00 | 81 | 1012.7 |
| 20260902063008 | 67 | 85 | 0.0 | 3.0 | 0.00 | 0.00 | 0.00 | 82 | 1012.4 |
| 20260902061503 | 67 | 86 | 0.0 | 2.0 | 0.00 | 0.00 | 0.00 | 83 | 1012.6 |
| 20260902060004 | 67 | 86 | 0.0 | 3.0 | 0.00 | 0.00 | 0.00 | 83 | 1012.7 |
| 20260902054508 | 67 | 86 | 0.0 | 3.0 | 0.00 | 0.00 | 0.00 | 83 | 1013.0 |
| 20260902053012 | 68 | 86 | 0.0 | 6.0 | 0.00 | 0.00 | 0.00 | 82 | 1012.8 |
| 20260902051503 | 68 | 60 | 0.0 | 0.0 | 0.00 | 0.00 | 0.00 | 82 | 1012.5 |
| 20260902050008 | 68 | 60 | 0.0 | 0.0 | 0.00 | 0.00 | 0.00 | 82 | 1013.0 |
| 20260902044519 | 69 | 74 | 0.0 | 0.0 | 0.00 | 0.00 | 0.00 | 81 | 1013.0 |
| 20260902043012 | 69 | 74 | 0.0 | 0.0 | 0.00 | 0.00 | 0.00 | 80 | 1013.0 |
| 20260902041514 | 70 | 74 | 0.0 | 0.0 | 0.00 | 0.00 | 0.00 | 77 | 1012.6 |
| 20260902040004 | 71 | 71 | 0.0 | 0.0 | 0.00 | 0.00 | 0.00 | 73 | 1012.5 |
| 20260902034508 | 71 | 64 | 1.0 | 7.0 | 0.00 | 0.00 | 0.00 | 73 | 1012.5 |
| 20260902033017 | 71 | 126 | 0.0 | 0.0 | 0.00 | 0.00 | 0.00 | 74 | 1013.1 |
| 20260902031532 | 71 | 72 | 3.0 | 8.0 | 0.00 | 0.00 | 0.00 | 74 | 1013.0 |
| 20260902030003 | 71 | 85 | 0.0 | 6.0 | 0.00 | 0.00 | 0.00 | 74 | 1013.1 |
| 20260902024512 | 71 | 81 | 2.0 | 5.0 | 0.00 | 0.00 | 0.00 | 74 | 1012.9 |
| 20260902023029 | 71 | 80 | 0.0 | 5.0 | 0.00 | 0.00 | 0.00 | 75 | 1012.9 |
| 20260902021517 | 71 | 66 | 2.0 | 5.0 | 0.00 | 0.00 | 0.00 | 77 | 1012.4 |
| 20260902020017 | 71 | 49 | 0.0 | 4.0 | 0.00 | 0.00 | 0.00 | 77 | 1012.5 |
| 20260902014519 | 71 | 48 | 0.0 | 3.0 | 0.00 | 0.00 | 0.00 | 78 | 1012.7 |
| 20260902013019 | 71 | 48 | 0.0 | 3.0 | 0.00 | 0.00 | 0.00 | 76 | 1012.5 |
| 20260902011523 | 72 | 48 | 0.0 | 3.0 | 0.00 | 0.00 | 0.00 | 74 | 1012.6 |
| 20260902010009 | 73 | 48 | 0.0 | 3.0 | 0.00 | 0.00 | 0.00 | 73 | 1012.5 |
| 20260902004515 | 73 | 48 | 0.0 | 4.0 | 0.00 | 0.00 | 0.00 | 72 | 1012.9 |
| 20260902003028 | 74 | 42 | 1.0 | 6.0 | 0.00 | 0.00 | 0.00 | 70 | 1012.9 |
| 20260902001525 | 75 | 68 | 0.0 | 2.0 | 0.00 | 0.00 | 0.00 | 71 | 1013.2 |
| 20260902000008 | 75 | 68 | 2.0 | 4.0 | 0.00 | 0.00 | 0.00 | 70 | 1013.3 |
| 20260901234515 | 76 | 71 | 1.0 | 3.0 | 0.00 | 0.00 | 0.00 | 70 | 1013.4 |
| 20260901233026 | 76 | 72 | 0.0 | 3.0 | 0.00 | 0.00 | 0.00 | 69 | 1013.6 |
| 20260901231536 | 76 | 72 | 0.0 | 3.0 | 0.00 | 0.00 | 0.00 | 66 | 1013.8 |
| 20260901230029 | 76 | 72 | 1.0 | 3.0 | 0.00 | 0.00 | 0.00 | 65 | 1013.7 |
| 20260901224525 | 76 | 72 | 0.0 | 1.0 | 0.00 | 0.00 | 0.00 | 64 | 1013.7 |
| 20260901223004 | 77 | 72 | 0.0 | 2.0 | 0.00 | 0.00 | 0.00 | 63 | 1013.8 |
| 20260901221516 | 77 | 72 | 0.0 | 2.0 | 0.00 | 0.00 | 0.00 | 63 | 1013.8 |
| 20260901220003 | 76 | 72 | 1.0 | 4.0 | 0.00 | 0.00 | 0.00 | 64 | 1013.8 |
| 20260901214504 | 76 | 73 | 3.0 | 7.0 | 0.00 | 0.00 | 0.00 | 64 | 1013.6 |
| 20260901213012 | 77 | 73 | 0.0 | 3.0 | 0.00 | 0.00 | 0.00 | 65 | 1013.8 |
| 20260901211512 | 77 | 71 | 0.0 | 3.0 | 0.00 | 0.00 | 0.00 | 66 | 1014.0 |
| 20260901210013 | 76 | 69 | 0.0 | 1.0 | 0.00 | 0.00 | 0.00 | 68 | 1014.6 |
| 20260901204511 | 76 | 69 | 0.0 | 3.0 | 0.00 | 0.00 | 0.00 | 67 | 1014.8 |
| 20260901203030 | 76 | 68 | 0.0 | 2.0 | 0.00 | 0.00 | 0.00 | 64 | 1015.1 |
| 20260901201508 | 76 | 68 | 0.0 | 3.0 | 0.00 | 0.00 | 0.00 | 64 | 1014.6 |
| 20260901200027 | 77 | 67 | 1.0 | 4.0 | 0.00 | 0.00 | 0.00 | 62 | 1014.3 |
| 20260901194504 | 77 | 51 | 0.0 | 5.0 | 0.00 | 0.00 | 0.00 | 63 | 1014.2 |
| 20260901193005 | 76 | 80 | 0.0 | 3.0 | 0.00 | 0.00 | 0.00 | 62 | 1014.2 |
| 20260901191519 | 76 | 72 | 0.0 | 4.0 | 0.00 | 0.00 | 0.00 | 61 | 1014.4 |
| 20260901190022 | 76 | 74 | 0.0 | 3.0 | 0.00 | 0.00 | 0.00 | 62 | 1014.6 |
| 20260901184504 | 75 | 50 | 2.0 | 7.0 | 0.00 | 0.00 | 0.00 | 57 | 1014.4 |
| 20260901183006 | 76 | 111 | 0.0 | 4.0 | 0.00 | 0.00 | 0.00 | 59 | 1014.6 |
| 20260901181519 | 75 | 99 | 0.0 | 6.0 | 0.00 | 0.00 | 0.00 | 57 | 1014.7 |
| 20260901180020 | 75 | 80 | 2.0 | 9.0 | 0.00 | 0.00 | 0.00 | 58 | 1014.5 |
| 20260901174504 | 75 | 101 | 1.0 | 7.0 | 0.00 | 0.00 | 0.00 | 57 | 1014.3 |
| 20260901173009 | 76 | 119 | 1.0 | 7.0 | 0.00 | 0.00 | 0.00 | 57 | 1014.5 |
| 20260901171515 | 75 | 149 | 1.0 | 6.0 | 0.00 | 0.00 | 0.00 | 56 | 1014.7 |
| 20260901170019 | 75 | 88 | 0.0 | 6.0 | 0.00 | 0.00 | 0.00 | 58 | 1015.1 |
| 20260901164528 | 74 | 93 | 0.0 | 6.0 | 0.00 | 0.00 | 0.00 | 57 | 1015.1 |